Other Surface Observations
Issued by NWS Charleston, SC

Home | Current Version | Previous Version | Text Only | Print | Product List | Glossary On
Versions: 1 2 3 4 5 6 7 8 9 10 11 12 13 14 15 16 17 18 19 20 21 22 23 24 25 26 27 28 29 30 31 32 33 34 35 36 37 38 39 40 41 42 43 44 45 46 47 48 49 50
000
SXUS52 KCHS 280427
OSOCHS

MARINE OBSERVATIONS
NATIONAL WEATHER SERVICE CHARLESTON SC
1200 AM EDT THU MAY 28 2015

...DOWNTOWN CHARLESTON AND HARBOR...

CITY           SKY/WX    TMP DP  RH WIND       PRES   REMARKS
WATERFRONT PRK   N/A     77  70  79 SE7       30.19S
FORT JOHNSON   NOT AVBL

...LAKE MOULTRIE...

CITY           SKY/WX    TMP DP  RH WIND       PRES   REMARKS
PINOPOLIS        N/A     75  68  78 CALM      30.16R

...LAKE AND SUPPLEMENTAL COASTAL OBSERVATIONS...

STATION/POSITION TIME  TEMP    WIND        PRES    WAVE   SWELL
                       AIR SEA DIR/SP/G            HT/PER HT/PER/DIR
                 (UTC) (F)     (DEG/KT/KT) (MB)    (FT/S) (FT/S/D)
FORT PULASKI     0400   75 79  120/  2/  3 1023.2F
SAPELO ISLAND    0400   75     130/  2     1022.0F
UPR LAKE MARION  NOT AVBL
WINYAH BAY       0300   72        CALM     1023.0R
LAKE MURRAY      0400   74     140/  4/  6 1022.7S
ACE BASIN NERRS  NOT AVBL


...C-MAN AND BUOY OBSERVATIONS...

STATION/POSITION TIME  TEMP    WIND        PRES    WAVE   SWELL
                       AIR SEA DIR/SP/G            HT/PER HT/PER/DIR
                 (UTC) (F)     (DEG/KT/KT) (MB)    (FT/S) (FT/S/D)
BUOY 41004       0350   77 78  120/  8/ 10 1022.9S   3/ 7   3/ 7
BUOY 41008       0350   78 78  140/ 10/ 10 1022.8F   3/ 7   2/100/ 7
FOLLY BEACH CMAN 0400   77     150/  8/ 10 1023.3R
CAPERS NS BUOY   0308   77     140/  8/ 12 1023.3R
FRIPP NS BUOY    0300   78     180/  6/  8 1022.4S
5E ST. MARYS GA  0321      79                N/A     3/ 7


STATION/POSITION TIME  TEMP    WIND        PRES    WAVE   SWELL
                       AIR SEA DIR/SP/G            HT/PER HT/PER/DIR
                 (UTC) (F)     (DEG/KT/KT) (MB)    (FT/S) (FT/S/D)
FRYING PAN BUOY  0350   76 75  170/  8/  8 1024.6S   3/ 7   3/130/ 7
BUOY 41025       0350   74 77  190/  8/ 10 1024.9F   3/ 7   3/130/ 7
CAPE LOOKOUT NC  0400   73     170/  6/  7 1024.2F
BUOY 41002       0350   73 74   90/ 10/ 12 1024.2F   5/ 7   5/120/ 7
BUOY 41010       0320   77 80   80/ 12/ 16 1021.9F
ST AUGUSTINE FL  0400   77 80  110/ 12/ 13 1022.6F

$$



USA.gov is the U.S. government's official web portal to all federal, state and local government web resources and services.